OPS 4682 DEB

Satellite information

Favourite Embed

Satellite Type and Status

DEBRISIN ORBIT

Key statistics

Satellite OPS 4682 DEB at a glance.

Uptime

22170

Days in orbit

Revolutions

≈ 13.0

Per day

Orbit

SSO

Sun Synchronous Orbit

Inclination

90.3

Latest

Satellite identification and parameters

Extended collection of information and parameters for OPS 4682 DEB.

Object identification

Identified? True

Debris? True

Object name: OPS 4682 DEB

International designator: 1965-027BC

Object number (NORAD): 20048

Object ID (CCSDS): 20048

Country: UNITED STATES OF AMERICA (US)

Current information (Y/N): Y

RCS size: SMALL

Orbital parameters

Period: 110.644 minutes

Inclination: 90.2538 deg

SMA: 7634.448 km

Apoapsis: 1280.193 km

Periapsis: 1232.432 km

RAAN: 350.0382 deg

Eccentricy: 0.003128

Argument of periapsis: 15.8948 deg

Mean anomaly: 13.3373 deg

Mean motion: 13.0147643 rev/day

Mean motion (dot): 0.00001398 rev/day2

B* drag term: 0.0045171 1/REarth

Two-line elements (TLE)

Creation date: Dec. 12, 2025, 7:26 a.m.

Reference frame: TEME

Reference center: EARTH

Epoch: Dec. 12, 2025, 12:07 a.m. UTC

TLE line 0: 0 OPS 4682 DEB

TLE line 1: 1 20048U 65027BC 25346.00513053 .00001398 00000-0 45171-2 0 9992

TLE line 2: 2 20048 90.2538 350.0382 0031280 15.8948 13.3373 13.01476430592019

Live tracking on map

Real-time ground track for satellite OPS 4682 DEB.

In-orbit conjunctions

A list of the most updated potential collisions computed for object OPS 4682 DEB.

Target Orbit TCA Probability of collision Miss distance Type
CZ-6A DEB SSO 2024-06-28 01:13:09 0.00014213 138.0 (m) DEBRIS

Associated space launch

Experimental satellite equipped with a nuclear power system and a cesium ion engine.

OPS 4682 DEB was lifted into orbit during the mission ‘Atlas SLV-3 Agena D | SNAPSHOT-1’, on board a Atlas SLV-3 Agena D space rocket.

The launch took place on April 3, 1965, 9:25 p.m. from Space Launch Complex 4E.

For more information about the launch, click the button.

Launch to space Atlas SLV-3 Agena D | SNAPSHOT-1
Atlas SLV-3 Agena D | SNAPSHOT-1

Agency: N/A

Status: Launch Successful

Launch date: April 3, 1965, 9:25 p.m. UTC

Rocket: Atlas SLV-3 Agena D

Launch pad: Space Launch Complex 4E

Location: Vandenberg SFB, CA, USA

...

Latest news about this satellite

There are no fresh news available about this satellite. Check back as we update our databases every day.


Newsletter sign-up

Weekly statistics, charts and insights to help you stay on top of the space industry.